RH
6 5 7 20 34 45 50 55 63 63 62 64 62 55 50 43 41 55 46 40 35 30 32 33 30 22 21 18 15 12 11 20 17 20 20 21 23 26 23 25 30 37 40 44 42 35 39
5 7 13 31 41 48 53 58 62 62 64 65 60 57 48 40 45 49 46 38 45 29 31 33 31 29 21 16 16 10 12 23 18 22 20 21 22 26 24 24 24 36 40 45 44 39 39
8 10 20 40 45 48 52 56 58 62 59 54 52 47 45 41 41 39 39 38 39 29 32 32 30 22 20 15 11 11 22 22 20 23 21 20 22 26 26 24 25 29 39 47 50 48 48
9 18 30 44 51 54 56 57 62 62 55 49 45 46 44 41 30 31 36 36 26 26 27 29 25 20 14 12 14 15 26 22 23 24 20 19 22 25 29 26 27 33 41 44 45 46 49
27 35 40 48 52 56 64 64 60 55 49 45 45 52 52 49 39 31 35 32 21 22 23 23 21 15 14 15 22 24 22 24 26 24 19 19 21 25 30 26 24 33 30 34 44 42 46
44 47 51 56 65 71 68 63 56 47 46 44 46 48 48 50 46 36 33 30 19 19 18 20 17 14 16 22 32 29 29 24 29 23 19 19 21 26 32 27 27 27 25 27 34 39 46
57 58 58 61 67 68 66 58 46 42 44 47 44 45 48 46 48 48 36 32 18 18 16 17 16 21 18 23 34 25 27 30 32 24 20 20 24 27 35 29 28 28 26 29 33 37 39
62 60 62 67 68 66 61 53 37 36 38 45 47 47 48 47 46 48 48 36 21 20 24 29 24 37 32 30 29 27 29 34 30 28 21 21 27 28 36 34 29 29 28 31 35 37 38
64 66 74 72 66 45 33 34 34 34 35 40 42 45 47 48 47 50 48 43 31 23 26 37 41 36 32 29 31 32 36 34 32 27 23 23 27 29 36 37 33 35 29 32 36 37 40
64 68 74 66 65 60 34 34 36 35 35 40 42 42 42 43 43 47 49 46 38 28 27 33 46 37 39 39 35 39 40 34 29 27 23 25 28 32 33 36 36 36 36 34 35 44 46
64 63 56 50 56 49 33 36 37 37 36 38 40 42 39 41 45 49 47 44 41 36 34 37 50 41 44 46 41 46 43 32 30 27 28 28 30 34 31 35 36 34 36 36 38 46 55
48 46 40 46 55 36 34 38 40 39 37 38 41 38 43 45 48 45 43 41 42 38 41 45 51 49 49 51 47 54 47 36 33 29 35 32 31 34 32 35 37 36 36 36 47 55 64
36 33 33 43 58 36 37 42 41 40 39 39 42 47 46 44 42 42 41 43 44 44 50 50 53 53 51 57 56 60 54 39 38 40 45 40 33 34 32 34 37 40 37 40 54 67 57
36 42 45 39 35 37 41 43 42 41 42 47 50 45 45 42 40 41 43 43 46 52 57 60 57 56 54 59 62 67 61 39 39 48 50 45 38 38 33 35 38 40 40 41 54 53 50
39 47 48 44 38 39 44 44 42 43 48 50 45 46 41 37 37 39 42 49 53 58 60 63 62 59 61 63 62 71 67 40 46 48 58 43 47 45 35 37 40 42 41 46 47 50 64
38 51 49 41 38 42 45 45 45 49 51 48 49 42 39 37 37 40 44 52 57 63 65 66 68 59 59 63 64 71 64 54 47 56 67 55 49 41 42 50 44 42 47 47 50 63 72
49 50 45 40 40 46 47 47 49 52 52 54 47 41 40 38 39 43 46 52 60 62 63 63 62 63 64 68 72 80 69 71 56 74 82 64 55 54 60 50 52 44 48 49 54 56 61
51 49 44 42 45 48 50 51 53 53 57 52 40 33 36 37 45 45 48 50 52 58 58 60 63 63 68 75 79 81 80 86 77 80 82 82 81 66 66 66 48 49 51 50 52 70 61
53 52 48 46 49 52 56 59 56 61 56 45 35 33 37 37 47 54 53 50 52 54 58 61 66 68 74 84 79 79 84 90 96 98 97 97 76 87 74 58 60 60 56 51 50 53 59
58 58 53 50 51 56 60 59 65 63 58 48 40 41 42 45 51 62 63 59 53 53 55 59 62 71 77 80 80 78 81 90 94 94 98 100 98 95 90 84 85 78 73 67 61 56 60
64 62 56 53 55 61 62 67 70 67 58 49 46 49 48 52 51 57 63 65 66 59 54 58 63 68 76 82 81 75 75 79 77 84 91 100 99 99 96 98 96 74 68 74 77 65 68
66 64 58 55 60 66 70 76 74 69 60 56 51 47 46 44 46 51 57 74 73 73 72 67 66 69 73 74 84 78 95 83 88 86 94 100 99 100 98 85 79 66 59 51 51 51 59
67 64 59 57 66 74 79 80 79 75 70 62 58 57 56 55 53 52 58 68 82 87 84 79 84 86 84 86 86 88 85 81 87 86 100 100 100 100 97 98 99 64 50 57 61 58 57
68 63 60 61 71 81 88 89 85 81 73 69 70 70 66 60 56 55 58 60 67 83 90 92 98 99 98 92 88 88 80 75 69 65 86 97 100 100 98 97 92 53 59 57 57 58 59
69 64 64 71 81 89 94 94 91 86 84 81 79 78 72 65 56 52 53 56 60 70 67 62 92 99 98 97 97 98 94 84 78 76 64 70 88 99 94 94 73 58 56 62 67 63 66
70 67 68 73 82 94 100 99 98 93 88 86 87 83 80 71 65 65 65 55 50 54 76 73 79 93 94 95 87 98 95 95 97 89 80 83 90 96 96 98 93 59 59 66 69 74 77
76 79 77 82 92 98 100 99 100 98 88 95 85 93 95 93 85 82 79 90 64 61 96 88 99 96 98 92 100 99 98 97 98 95 91 84 97 95 90 96 81 65 64 76 88 83 96
99 87 89 97 99 97 96 99 98 99 97 95 96 100 99 87 75 66 65 62 60 68 98 91 100 91 96 99 99 99 98 95 97 94 98 97 98 96 98 97 82 65 92 97 96 95 97
99 100 95 93 97 99 99 98 99 99 100 99 99 100 98 82 69 72 63 73 42 53 91 96 99 98 100 100 98 99 98 98 98 100 100 97 94 95 96 82 83 80 95 97 100 94 97
Wind_Speed
8 9 9 10 10 10 11 12 14 16 18 18 18 18 18 17 15 15 16 16 14 7 5 3 3 4 5 5 5 7 10 14 12 13 12 12 13 10 7 4 4 2 2 1 2 3 1
8 8 9 9 10 10 11 13 15 16 17 17 17 18 18 17 15 15 15 15 13 5 2 3 3 4 4 5 5 6 10 14 11 12 11 11 13 12 7 3 4 2 1 2 4 4 5
7 7 8 8 9 9 11 12 15 16 17 17 16 16 17 16 16 15 15 15 13 5 2 1 3 5 4 6 6 7 13 12 12 13 10 10 11 13 7 4 5 3 3 5 7 7 8
7 7 7 8 9 10 12 14 15 17 18 18 15 16 17 17 17 17 16 17 12 8 6 5 6 6 5 6 7 9 14 13 14 14 10 9 9 11 8 6 5 3 4 7 7 10 11
7 6 6 7 9 11 13 14 16 17 20 20 16 18 22 20 19 18 17 15 11 10 9 8 7 5 5 7 9 10 12 12 14 13 9 8 8 9 10 7 4 3 7 10 10 9 12
5 5 5 6 8 9 12 13 15 16 17 18 16 19 22 24 21 20 17 15 11 10 10 9 6 4 6 8 13 10 12 11 14 11 9 7 6 9 9 7 6 9 11 10 10 9 13
3 4 4 5 7 10 11 13 13 13 12 13 15 16 19 23 24 20 18 12 7 9 10 7 5 7 7 11 11 7 10 13 13 10 8 7 4 12 10 8 10 13 13 14 10 13 17
3 4 5 6 9 11 12 13 13 11 10 10 13 15 17 20 24 24 20 11 3 5 8 9 6 11 10 8 6 9 12 14 12 9 8 5 5 12 10 8 11 14 15 12 11 13 20
5 5 6 9 9 13 14 14 14 12 12 11 12 14 16 19 20 22 19 13 2 2 2 8 9 11 12 6 10 11 15 14 12 8 9 4 8 9 9 10 11 15 10 10 15 22 25
9 9 11 13 13 14 15 14 13 13 11 11 12 13 14 17 18 21 18 15 6 5 1 4 12 10 12 10 10 15 16 15 10 9 7 5 11 6 11 11 14 15 9 16 20 17 6
12 13 15 15 15 15 15 14 13 13 11 10 11 12 13 16 19 22 19 16 8 1 2 6 11 10 10 11 9 13 15 12 9 8 11 8 6 3 13 11 16 11 15 20 19 16 13
14 15 16 17 15 16 15 14 14 13 12 11 12 12 14 17 21 21 19 17 7 1 1 4 7 8 8 10 7 13 14 12 9 6 13 10 6 2 11 12 14 13 17 18 9 7 2
15 15 15 15 15 16 15 14 13 12 10 10 11 14 16 18 21 21 20 16 2 2 7 4 8 11 8 12 9 14 14 11 13 11 19 10 5 5 8 12 14 15 16 5 3 2 4
15 16 16 16 15 14 14 12 11 10 10 11 13 15 18 20 21 21 17 11 2 3 5 8 11 10 7 12 10 14 13 9 13 17 15 13 5 9 10 10 17 10 11 4 4 3 6
16 17 17 16 15 14 13 11 9 9 10 12 14 16 18 19 19 18 14 5 4 6 7 9 10 6 5 11 12 14 10 6 11 14 15 9 7 13 9 9 15 10 8 9 6 9 3
17 17 17 15 14 14 13 11 9 9 10 11 13 15 17 19 18 15 9 5 5 7 8 9 7 5 10 13 10 12 6 5 6 13 17 13 13 7 9 15 10 11 8 5 5 5 5
18 17 16 15 13 13 13 12 11 11 10 11 14 17 17 17 16 9 8 7 7 7 8 8 10 8 9 11 13 11 2 9 5 15 18 15 7 12 16 14 16 12 6 4 5 5 2
20 18 17 15 14 13 12 12 12 12 11 13 14 15 14 16 10 10 10 9 9 8 8 9 11 7 8 10 10 4 6 8 11 19 15 12 12 16 27 15 10 7 8 8 4 4 8
22 20 18 17 15 14 13 13 12 11 12 13 12 13 13 15 6 12 11 10 8 10 9 10 8 9 9 9 8 8 8 13 16 14 17 19 7 12 9 2 6 12 15 15 15 19 20
23 22 21 19 18 16 16 14 13 13 14 13 13 12 14 10 12 13 12 11 12 11 12 11 11 9 10 12 10 10 13 10 20 22 19 16 14 15 18 24 27 34 34 32 30 25 25
24 23 23 22 21 19 18 16 15 15 15 14 13 12 13 14 15 14 15 13 12 12 12 14 12 13 13 13 18 12 17 20 18 22 17 13 23 23 25 26 30 32 33 31 35 35 30
26 25 25 24 23 21 20 18 17 16 16 15 15 16 14 14 14 15 16 16 12 12 14 17 17 15 16 19 18 21 21 23 25 23 26 28 18 32 33 26 16 30 30 16 22 26 33
29 27 27 27 26 24 22 21 20 19 18 17 17 17 18 18 17 18 18 16 17 17 15 16 20 21 22 22 21 22 23 22 24 27 27 28 22 21 14 20 27 20 13 29 27 21 23
30 29 29 29 27 26 25 24 22 22 20 19 19 21 21 23 21 20 21 19 18 19 19 18 21 22 23 23 22 23 25 21 19 16 19 26 27 20 20 25 2 11 37 27 27 24 25
31 31 31 30 29 28 28 27 26 25 23 23 23 24 28 30 28 23 21 22 22 20 24 26 19 20 21 19 25 19 23 11 9 13 13 17 18 12 7 15 36 20 20 24 26 34 31
31 32 32 32 32 31 30 29 31 29 28 27 26 29 30 33 36 33 28 28 28 30 23 24 21 21 20 25 22 18 11 17 7 10 9 16 17 17 20 11 6 26 32 31 28 35 11
35 34 35 34 33 32 33 33 31 32 34 30 31 31 31 37 38 37 34 28 29 26 26 35 23 23 23 24 24 21 21 20 11 9 10 18 16 21 26 17 21 25 27 23 18 30 35
40 37 37 35 36 37 38 37 37 36 38 38 38 31 29 36 40 38 38 32 28 26 30 21 27 26 21 19 18 21 16 15 15 22 28 26 16 17 12 11 16 22 32 31 42 48 46
42 38 38 38 39 41 41 40 40 41 39 40 43 34 30 33 41 43 41 39 30 31 23 26 29 28 30 33 24 20 18 31 37 33 30 23 26 27 29 32 43 49 45 48 48 43 41
Wind_Direction
71 67 66 66 57 49 44 35 26 18 12 8 6 8 9 9 7 9 12 10 15 15 24 32 22 7 0 14 18 10 5 358 1 360 1 8 15 16 17 32 33 70 92 42 331 321 315
65 68 70 60 48 38 31 23 15 9 6 4 3 6 10 11 12 8 8 6 5 8 21 24 7 10 27 29 22 10 2 356 4 2 359 8 14 16 9 6 355 356 273 265 292 309 288
68 68 64 55 44 31 22 13 7 6 8 9 9 14 14 13 13 10 9 9 1 13 33 83 55 75 63 41 25 8 1 1 3 1 359 5 10 18 6 345 341 326 264 276 294 301 303
74 69 57 43 35 26 16 8 6 7 11 15 19 21 19 14 14 12 11 9 17 45 74 93 100 91 64 46 20 357 1 3 359 358 360 360 2 7 10 352 341 313 288 289 301 298 298
83 70 53 38 25 19 14 10 9 11 18 27 33 32 25 21 21 19 17 21 51 71 86 93 93 77 46 22 10 353 353 354 354 356 354 357 356 360 0 350 302 291 303 292 284 292 292
78 63 44 30 23 14 9 6 5 10 18 26 30 26 25 24 21 20 18 29 59 81 76 82 65 48 15 2 350 352 350 352 350 353 351 353 357 3 359 359 354 320 310 309 288 285 287
48 28 20 12 2 355 354 357 359 1 9 17 21 23 24 24 22 19 21 27 65 80 78 67 51 16 352 338 343 357 355 348 350 350 351 354 22 4 4 355 347 335 319 312 307 291 291
350 345 349 349 343 345 343 343 347 349 350 355 4 9 13 13 16 13 13 21 76 90 78 58 52 10 359 0 17 3 353 350 354 354 358 5 31 0 357 349 342 337 318 310 317 317 305
310 318 325 329 332 338 334 334 335 339 342 340 340 346 357 4 6 5 9 10 16 169 86 43 28 17 24 36 16 1 357 358 359 7 4 22 355 360 357 342 333 336 323 310 307 310 308
298 300 305 317 316 326 327 326 328 327 333 337 341 346 347 351 355 359 1 2 340 242 277 13 12 15 15 7 1 359 2 357 7 4 15 348 341 1 359 346 337 336 319 321 309 304 302
293 297 304 307 312 318 321 320 320 318 322 326 332 340 344 346 350 352 357 358 349 293 30 349 360 5 4 6 8 2 0 12 6 5 1 347 350 353 358 356 342 322 320 315 308 300 298
293 293 300 306 305 315 318 317 316 316 319 323 330 343 346 345 345 347 351 351 348 351 73 321 350 347 352 359 1 4 5 9 8 2 359 351 346 346 350 349 346 334 334 314 312 301 281
289 295 299 301 302 309 313 314 315 314 315 318 325 334 338 339 339 340 343 346 348 57 330 332 335 341 341 360 346 357 4 9 24 12 356 354 339 333 341 342 349 341 348 343 351 345 248
286 292 297 298 299 304 306 307 308 308 312 318 326 330 334 336 337 338 343 350 63 352 351 333 335 334 331 351 344 352 360 11 15 12 352 346 339 332 329 323 341 351 4 27 308 303 297
283 289 292 294 296 298 298 298 300 302 308 314 321 328 331 335 338 340 343 20 25 344 333 337 337 340 330 339 345 347 353 8 3 0 8 340 307 315 321 309 333 337 341 330 276 277 305
277 283 286 289 292 293 292 288 288 292 302 312 318 326 332 337 342 345 5 24 357 339 335 337 347 324 323 333 343 346 353 342 343 346 348 329 304 308 322 322 314 320 303 320 326 324 302
272 275 276 278 281 284 285 284 286 294 304 315 324 330 334 339 345 1 7 5 350 341 339 337 329 315 321 330 337 341 338 329 321 334 335 333 292 303 316 317 305 305 268 237 285 264 262
266 267 267 266 266 266 268 277 287 297 307 317 324 329 333 339 353 1 360 354 343 337 332 325 325 327 322 331 337 354 327 318 318 322 327 323 299 290 314 304 303 267 258 254 258 267 256
267 265 262 262 259 257 260 266 272 279 292 305 316 326 335 341 347 353 351 346 343 332 325 320 324 322 320 326 329 317 318 317 315 320 317 312 295 311 323 317 322 295 287 280 281 279 259
256 260 261 258 256 254 257 261 266 276 290 302 313 324 329 336 336 340 341 344 337 330 320 318 320 316 314 318 318 306 310 307 311 307 304 303 282 278 266 290 299 292 287 283 280 271 266
253 256 254 252 250 249 252 254 260 275 287 294 302 309 317 316 323 327 328 331 326 320 318 315 309 311 307 307 311 309 317 316 320 320 310 299 295 298 300 298 299 299 296 291 277 277 255
248 250 253 251 250 250 253 255 262 271 279 287 295 304 307 311 318 319 318 321 320 319 316 309 306 305 303 303 307 306 310 317 306 312 308 308 297 303 302 312 306 307 308 302 298 287 273
249 247 247 248 248 248 251 255 261 267 275 282 289 294 299 301 305 309 307 309 307 305 305 303 307 304 303 305 294 300 302 304 297 294 291 290 288 299 292 300 308 302 331 314 306 298 290
250 248 245 245 247 251 254 257 260 264 267 273 282 289 293 291 292 294 296 299 302 302 299 299 302 303 306 305 301 303 306 304 288 287 284 275 280 285 286 309 280 317 317 314 307 307 304
246 245 245 245 245 248 251 255 257 261 265 275 282 286 290 290 288 287 289 293 291 293 296 296 298 300 314 310 309 317 319 309 287 286 303 284 266 266 276 284 297 319 314 312 309 307 313
245 247 248 248 248 250 253 257 262 266 269 273 281 288 288 293 296 297 296 296 291 299 290 303 296 309 302 300 305 292 302 294 281 283 273 262 257 249 261 273 272 300 307 309 314 310 299
243 246 245 247 249 251 252 256 260 263 272 268 279 280 287 292 292 294 294 291 291 288 285 301 300 302 298 293 290 276 280 279 271 247 295 304 264 253 259 251 278 284 299 305 307 307 307
243 244 247 245 248 253 256 260 265 271 276 277 275 270 278 285 287 287 287 290 289 284 278 282 295 295 295 273 285 285 272 276 256 279 293 285 269 268 268 237 276 306 300 292 305 310 310
247 240 243 246 253 255 254 255 259 262 266 269 261 270 276 280 287 291 288 292 292 288 276 274 263 272 281 275 273 286 260 290 292 286 291 270 274 285 277 279 287 299 296 303 302 309 306